KI1U Weather Reports


time (UTC)temp
F
wind
direction
speed
knots
gust
knots
rain 1hr
in
rain 24hr
in
rain mn
in
humidity
%
barometer
mb
20260505011526 54 118 0.0 3.5 0.00 0.00 0.00 68 1011.8
20260505010031 54 100 0.0 3.5 0.00 0.00 0.00 67 1011.6
20260505004506 54 110 0.0 5.2 0.00 0.00 0.00 66 1011.3
20260505003013 55 215 0.9 4.3 0.00 0.00 0.00 64 1011.1
20260505001516 56 74 1.7 5.2 0.00 0.00 0.00 62 1010.9
20260505000035 56 158 0.9 5.2 0.00 0.00 0.00 60 1010.5
20260504234526 57 166 2.6 8.7 0.00 0.00 0.00 57 1010.3
20260504233006 58 181 0.9 6.1 0.00 0.00 0.00 53 1010.2
20260504231513 59 244 1.7 7.0 0.00 0.00 0.00 50 1010.0
20260504230025 60 29 0.0 6.1 0.00 0.00 0.00 47 1009.9
20260504224523 61 201 1.7 9.6 0.00 0.00 0.00 45 1009.8
20260504223026 62 131 0.9 7.0 0.00 0.00 0.00 43 1009.6
20260504221520 63 248 1.7 9.6 0.00 0.00 0.00 42 1009.6
20260504220015 64 181 2.6 10.4 0.00 0.00 0.00 42 1009.7
20260504214518 65 250 2.6 7.8 0.00 0.00 0.00 40 1009.7
20260504213027 66 216 1.7 9.6 0.00 0.00 0.00 38 1009.5
20260504211530 66 202 1.7 8.7 0.00 0.00 0.00 39 1009.4
20260504210010 66 113 2.6 10.4 0.00 0.00 0.00 38 1009.4
20260504204517 67 303 3.5 12.2 0.00 0.00 0.00 38 1009.4
20260504203020 67 191 2.6 12.2 0.00 0.00 0.00 38 1009.3
20260504201525 67 91 2.6 8.7 0.00 0.00 0.00 37 1009.2
20260504200026 68 15 2.6 9.6 0.00 0.00 0.00 35 1009.2
20260504194514 69 297 2.6 11.3 0.00 0.00 0.00 34 1009.3
20260504193021 69 143 0.9 8.7 0.00 0.00 0.00 36 1009.3
20260504191534 68 231 3.5 13.9 0.00 0.00 0.00 32 1009.4
20260504190027 68 307 4.3 10.4 0.00 0.00 0.00 31 1009.4
20260504184527 69 233 1.7 11.3 0.00 0.00 0.00 29 1009.6
20260504183014 69 169 2.6 10.4 0.00 0.00 0.00 31 1009.6
20260504181523 69 306 3.5 9.6 0.00 0.00 0.00 28 1009.8
20260504180024 68 216 3.5 11.3 0.00 0.00 0.00 29 1010.0
20260504174527 69 335 1.7 9.6 0.00 0.00 0.00 30 1009.9
20260504173033 69 243 2.6 8.7 0.00 0.00 0.00 29 1010.0
20260504171521 68 132 2.6 13.9 0.00 0.00 0.00 28 1009.9
20260504081511 37 311 0.0 0.0 0.00 0.00 0.00 82 1011.8
20260504050025 34 311 0.0 0.0 0.00 0.00 0.00 80 1011.8
20260504044526 34 311 0.0 0.0 0.00 0.00 0.00 80 1011.9
20260504043017 35 311 0.0 0.0 0.00 0.00 0.00 79 1012.0
20260504041518 35 311 0.0 0.0 0.00 0.00 0.00 78 1011.9
20260504040038 35 311 0.0 0.0 0.00 0.00 0.00 76 1011.6
20260504034524 35 311 0.0 0.0 0.00 0.00 0.00 76 1011.7
20260504033028 35 311 0.0 0.0 0.00 0.00 0.00 74 1011.5
20260504031516 36 311 0.0 0.0 0.00 0.00 0.00 74 1011.5
20260504030020 36 311 0.0 0.0 0.00 0.00 0.00 72 1011.4
20260504024522 36 311 0.0 0.0 0.00 0.00 0.00 71 1011.3
20260504023026 37 311 0.0 0.0 0.00 0.00 0.00 70 1011.2
20260504021528 37 311 0.0 0.0 0.00 0.00 0.00 67 1011.2
20260504020016 38 311 0.0 0.0 0.00 0.00 0.00 65 1011.2
20260504014525 38 311 0.0 0.0 0.00 0.00 0.00 63 1011.1
20260504013025 39 311 0.0 0.0 0.00 0.00 0.00 60 1011.0